FENGYUN 1C DEB

Satellite information

Favourite Embed

Satellite Type and Status

DEBRISIN ORBIT

Key statistics

Satellite FENGYUN 1C DEB at a glance.

Uptime

9495

Days in orbit

Revolutions

≈ 14.7

Per day

Orbit

SSO

Sun Synchronous Orbit

Inclination

99.1

Latest

Satellite identification and parameters

Extended collection of information and parameters for FENGYUN 1C DEB.

Object identification

Identified? True

Debris? True

Object name: FENGYUN 1C DEB

International designator: 1999-025DUT

Object number (NORAD): 36218

Object ID (CCSDS): 36218

Country: PEOPLES REPUBLIC OF CHINA (PRC)

Current information (Y/N): Y

RCS size: SMALL

Orbital parameters

Period: 98.105 minutes

Inclination: 99.0844 deg

SMA: 7046.19 km

Apoapsis: 721.956 km

Periapsis: 614.155 km

RAAN: 304.3904 deg

Eccentricy: 0.0076496

Argument of periapsis: 250.094 deg

Mean anomaly: 109.2008 deg

Mean motion: 14.6781464 rev/day

Mean motion (dot): 0.00006888 rev/day2

B* drag term: 0.0011645 1/REarth

Two-line elements (TLE)

Creation date: May 8, 2025, 3:01 a.m.

Reference frame: TEME

Reference center: EARTH

Epoch: May 7, 2025, 5:30 p.m. UTC

TLE line 0: 0 FENGYUN 1C DEB

TLE line 1: 1 36218U 99025DUT 25127.72970423 .00006888 00000-0 11645-2 0 9995

TLE line 2: 2 36218 99.0844 304.3904 0076496 250.0940 109.2008 14.67814640559270

Live tracking on map

Real-time ground track for satellite FENGYUN 1C DEB.

In-orbit conjunctions

A list of the most updated potential collisions computed for object FENGYUN 1C DEB.

Target Orbit TCA Probability of collision Miss distance Type
SL-14 R/B LEO 2025-04-11 01:25:33 0.0001285796 418.0 (m) ROCKET BODY
SL-14 R/B LEO 2025-01-05 00:26:34 0.0001098274 650.0 (m) ROCKET BODY
RUBIN 9.1/RUBIN 9.2/PSLV SSO 2024-09-11 05:16:21 0.0001168233 385.0 (m) PAYLOAD
IRIDIUM 69 LEO 2024-07-12 02:17:24 0.0001363583 679.0 (m) PAYLOAD

Associated space launch

Chinese polar orbiting meteorological satellite

FENGYUN 1C DEB was lifted into orbit during the mission ‘Long March 4B | Feng Yun 1C’, on board a Long March 4B space rocket.

The launch took place on May 10, 1999, 1:33 a.m. from Launch Complex 7.

For more information about the launch, click the button.

Launch to space Long March 4B | Feng Yun 1C
Long March 4B | Feng Yun 1C

Agency: N/A

Status: Launch Successful

Launch date: May 10, 1999, 1:33 a.m. UTC

Rocket: Long March 4B

Launch pad: Launch Complex 7

Location: Taiyuan Satellite Launch Center, People's Republic of China

...

Latest news about this satellite

There are no fresh news available about this satellite. Check back as we update our databases every day.


Newsletter sign-up

Weekly statistics, charts and insights to help you stay on top of the space industry.